CZ-3C DEB, 40823

Orbit data source: Space-Track

CZ-3C DEB, 40823 is space debris in HEO originally from a launch on Sun, 31 Oct 2010 UTC launched from the Xichang Space Center, China (XSC). Debris objects in space refer to the collection of defunct objects orbiting the Earth. Examples of debris include non-operational satellites, rocket bodies, and fragments generated from explosions, collisions, or faulty payload assembly.

Loading next visibility...
Identifier
40823, 2010-057AQ
Orbit
HEO
Country
Flag of CNCN / PRC
Related business
Manufacturer
CALT
Mission
Spacecraft
Bus & Motor
Unknown
Mass
Unknown
Launch date (UTC)
2010-10-31 (16 years ago)
Launch vehicle
Unknown
Launch site
Xichang Space Center, China (XSC)
Object type
Payload
Rocket body
Debris
Shape & HBR
Unknown shape, 0.2 m
Radar Cross Section
Medium (>0.1 m² and <1 m²)

Expand to show TLE details & history
Last TLE update: 2 months ago

TLE from 2 months ago
0 CZ-3C DEB
1 40823U 10057AQ  26192.68898882 -.00000233  00000-0 -53697-3 0  9990
2 40823  20.9958  56.8972 7185244 219.6540  55.6879  2.23710681 93571
Epoch: 2026-07-11T16:32Z
TLE epoch observation values (Epoch: 2026-07-11T16:32:08.634Z)
Latitude
-0.00003°
Longitude
-120.66457°
Altitude
20,349.061 km
Speed
3.699 km/s
True Right ascension
03h 47m 52s
True Declination
0° 00' 00"
Sunlit
Object was in daylight at epoch
Visualization orbit readout
Latitude
Unknown
Longitude
Unknown
Altitude
Unknown
Speed
Unknown
Apparent Right ascension
Unknown
Apparent Declination
Unknown
Sunlit
N/A
Visualization observer readout
Local Sidereal Time
08:08:02
Azimuth
Unknown
Elevation
Unknown
Doppler factor
Unknown
Orbital elements
Apogee altitude
36,068.368 km
Perigee altitude
574.139 km
Semi-major axis
24,699.391 km
Eccentricity
0.71852
Inclination
20.9958°
RAAN
56.8972°
Arg. of periapsis
219.654°
True anomaly
140.33339°
Mean anomaly
55.6879°
Eccentric anomaly
96.58474°
Mean motion
0.55913 °/min
Orbital period
643.86 mins
BSTAR
-0.00053697
Loading maneuver chart data...
Computing Atmospheric mass density...
Loading historical data...
Loading historical data...
Loading historical data...
Loading historical data...
Loading historical data...
Loading historical data...
Loading historical data...

Documentation

Showing up to 5 results
|